STARLINK-3253, 51136

Orbit data source: Space-Track

STARLINK-3253, 51136 is a payload satellite owned by SpaceX/Seattle (US) in LEO that was launched on Wed, 19 Jan 2022 UTC via an FALCON 9 launch vehicle from the Air Force Eastern Test Range (AFETR). Payload-class satellites include a variety of spacecraft equipped with specific instruments for various scientific and technological missions. These include communications satellites like Starlink; space stations such as the ISS; scientific satellites like the Hubble; Earth observation satellites from companies like Planet Labs, Umbra, and HawkEye 360; GPS; miniature CubeSats for education and research; and military/defense satellites.

Loading next visibility...
Identifier
51136, 2022-005AJ
Orbit
LEO
Country
Flag of USUS
Related business
Manufacturer
SpaceX/Seattle
Mission
Operational Commercial Communications
Bus & Motor
STARLINK, Unknown motor
Mass
297 kg wet, ~275 kg dry
Launch date (UTC)
2022-01-19 (4 years ago)
Launch vehicle
FALCON 9
Launch site
Air Force Eastern Test Range (AFETR)
Object type
Payload
Rocket body
Debris
Shape & HBR
Box + 1 Pan, 10.1 m
Radar Cross Section
13.562 m², Large (>1 m²)

Expand to show TLE details & history
Last TLE update: 2 days ago

TLE from 2 days ago
0 STARLINK-3253
1 51136U 22005AJ  26171.38126111 -.00000804  00000-0 -32414-4 0  9997
2 51136  53.1578 197.8000 0001070  81.4088 278.7024 15.08828651244238
Epoch: 2026-06-20T09:09Z
TLE epoch observation values (Epoch: 2026-06-20T09:09:00.959Z)
Latitude
-0.00009°
Longitude
151.94924°
Altitude
540.557 km
Speed
7.593 km/s
True Right ascension
13h 11m 11s
True Declination
0° 00' 00"
Sunlit
Object was in daylight at epoch
Visualization orbit readout
Latitude
Unknown
Longitude
Unknown
Altitude
Unknown
Speed
Unknown
Apparent Right ascension
Unknown
Apparent Declination
Unknown
Sunlit
N/A
Visualization observer readout
Local Sidereal Time
00:50:18
Azimuth
Unknown
Elevation
Unknown
Doppler factor
Unknown
Orbital elements
Apogee altitude
540.773 km
Perigee altitude
539.292 km
Semi-major axis
6,918.17 km
Eccentricity
0.00011
Inclination
53.1578°
RAAN
197.8°
Arg. of periapsis
81.4088°
True anomaly
278.69028°
Mean anomaly
278.7024°
Eccentric anomaly
278.69634°
Mean motion
3.77187 °/min
Orbital period
95.44 mins
BSTAR
-0.000032414
Loading maneuver chart data...
Computing Atmospheric mass density...
Loading historical data...
Loading historical data...
Loading historical data...
Loading historical data...
Loading historical data...
Loading historical data...
Loading historical data...

Documentation

Showing up to 5 results
|